[[{"header":{"parameterUnit":"m.s-1","parameterCategory":1,"la1":30.2992,"la2":30.254,"lo1":-89.0895,"lo2":-89.0443,"dy":0.0025,"dx":0.0025,"nx":19,"ny":19,"refTime":"2026-05-10T09:00:00:Z","depth":0,"parameterNumber":2,"parameterNumberName":"U-component_of_WINDS"},"data":[0,0,0,-1.1797,-1.1797,-1.182,-1.182,-1.1833,-1.1833,0,0,0,0,0,0,0,0,0,0,0,-1.1782,-1.1782,-1.1797,-1.1797,-1.182,-1.182,-1.1833,-1.1833,0,0,0,0,0,0,0,0,0,0,0,-1.1782,-1.1782,-1.1782,-1.1797,-1.182,-1.182,-1.1833,-1.1822,0,0,0,0,0,0,0,0,0,0,-1.1802,-1.1781,-1.1782,-1.1782,-1.1797,-1.182,-1.182,-1.1821,-1.1822,-1.1817,0,-1.1812,0,-1.1823,-1.1833,-1.1833,0,0,0,-1.1803,-1.178,-1.1794,-1.1782,-1.1797,-1.1819,-1.1811,-1.1822,-1.1823,-1.1818,-1.1812,-1.1813,-1.1823,-1.1833,-1.1833,-1.1786,-1.1785,0,0,-1.1802,-1.1782,-1.1793,-1.1794,-1.1791,-1.181,-1.1812,-1.1823,-1.1814,-1.1812,-1.1813,-1.1823,-1.1833,-1.1833,-1.1786,-1.1786,0,0,0,-1.1794,-1.1781,-1.1794,-1.1793,-1.1798,-1.1811,-1.1812,-1.1814,-1.182,-1.1814,-1.1823,-1.1833,-1.1833,-1.1787,-1.1786,-1.1742,0,0,0,-1.1794,-1.1777,-1.1793,-1.1781,-1.1798,-1.1807,-1.1802,-1.1819,-1.1821,-1.1823,-1.1833,-1.1833,-1.1788,-1.1787,-1.1744,-1.1724,0,0,0,-1.1783,-1.1776,-1.1776,-1.178,-1.1789,-1.1807,-1.1814,-1.182,-1.1826,-1.1833,-1.1833,-1.1788,-1.1787,-1.1747,-1.1728,-1.1704,0,0,0,-1.1767,-1.1737,-1.1775,-1.1746,-1.1789,-1.178,-1.1814,-1.1808,-1.1809,-1.1833,-1.1788,-1.1786,-1.1747,-1.173,-1.1706,-1.168,-1.1668,0,0,-1.1719,-1.1731,-1.1715,-1.175,-1.1728,-1.1778,-1.175,-1.177,-1.1789,-1.1785,-1.1785,-1.1744,-1.1728,-1.1705,-1.1608,-1.1598,0,0,0,-1.1693,-1.1681,-1.168,-1.168,-1.1694,-1.1704,-1.173,-1.1737,-1.1735,-1.1783,-1.173,-1.1722,-1.1709,-1.1697,-1.1689,-1.1678,-1.178,-1.1781,-1.1781,-1.1596,-1.1621,-1.1596,-1.1623,-1.1623,-1.1649,-1.165,-1.1664,-1.169,-1.1677,-1.1676,-1.1614,-1.16,-1.1593,-1.1582,-1.1665,-1.1665,-1.1665,-1.1665,-1.1526,-1.1513,-1.1547,-1.1535,-1.1561,-1.1551,-1.1574,-1.1593,-1.1586,-1.1618,-1.1608,-1.1638,-1.1582,-1.1573,-1.1662,-1.1662,-1.1663,-1.1663,-1.1663,-1.1464,-1.1462,-1.1471,-1.1472,-1.147,-1.1499,-1.149,-1.1515,-1.1538,-1.1528,-1.1528,-1.1529,-1.1532,-1.1527,-1.1527,-1.1527,-1.1526,-1.1526,-1.1526,-1.1396,-1.1407,-1.1397,-1.1409,-1.1411,-1.1417,-1.1442,-1.1445,-1.1454,-1.1472,-1.1472,-1.1498,-1.1572,-1.1589,-1.1523,-1.1523,-1.1524,-1.1524,-1.1524,-1.1313,-1.1335,-1.132,-1.1322,-1.1337,-1.1331,-1.1363,-1.1366,-1.1371,-1.1366,-1.1394,-1.1445,-1.1459,-1.1466,-1.148,-1.139,-1.139,-1.139,-1.139,-1.1259,-1.1269,-1.1258,-1.1259,-1.1264,-1.129,-1.127,-1.1288,-1.1311,-1.1315,-1.1332,-1.1354,-1.136,-1.137,-1.1379,-1.1392,-1.1281,-1.1281,-1.1281,-1.1209,-1.122,-1.1199,-1.1222,-1.1234,-1.1244,-1.1225,-1.1224,-1.1254,-1.1277,-1.1319,-1.1323,-1.1358,-1.1369,-1.1392,-1.1405,-1.1431,0,0]},{"header":{"parameterUnit":"m.s-1","parameterCategory":1,"la1":30.2992,"la2":30.254,"lo1":-89.0895,"lo2":-89.0443,"dy":0.0025,"dx":0.0025,"nx":19,"ny":19,"refTime":"2026-05-10T09:00:00:Z","depth":0,"parameterNumber":3,"parameterNumberName":"V-component_of_WINDS"},"data":[0,0,0,0.1335,0.1336,0.138,0.138,0.1442,0.1443,0,0,0,0,0,0,0,0,0,0,0,0.1326,0.1326,0.1334,0.1336,0.138,0.138,0.1442,0.1443,0,0,0,0,0,0,0,0,0,0,0,0.1326,0.1326,0.1327,0.1336,0.138,0.138,0.1442,0.1406,0,0,0,0,0,0,0,0,0,0,0.1363,0.1359,0.1326,0.1327,0.1336,0.1379,0.138,0.1404,0.1409,0.1425,0,0.1441,0,0.1443,0.1447,0.1447,0,0,0,0.1333,0.1356,0.1363,0.1327,0.1337,0.1379,0.1359,0.1407,0.1411,0.143,0.1442,0.1444,0.1444,0.1448,0.1448,0.1551,0.1551,0,0,0.133,0.1336,0.136,0.1367,0.1361,0.1358,0.136,0.1409,0.1422,0.1442,0.1445,0.1445,0.1448,0.1449,0.155,0.1551,0,0,0,0.1325,0.1335,0.1341,0.1364,0.1372,0.1359,0.1362,0.142,0.1422,0.1446,0.1445,0.1448,0.1449,0.155,0.1551,0.1588,0,0,0,0.1324,0.1332,0.134,0.1345,0.1371,0.1397,0.1372,0.1418,0.1424,0.1445,0.1448,0.145,0.1549,0.155,0.1585,0.1605,0,0,0,0.1322,0.1332,0.1339,0.1345,0.1364,0.1396,0.14,0.1419,0.1424,0.1447,0.145,0.1548,0.155,0.1583,0.1601,0.1634,0,0,0,0.1321,0.1373,0.134,0.1397,0.1363,0.1418,0.1399,0.144,0.1465,0.1449,0.1549,0.155,0.1582,0.1599,0.1632,0.1664,0.1677,0,0,0.139,0.1382,0.1414,0.1386,0.1448,0.1411,0.1477,0.1495,0.1492,0.1531,0.1533,0.1586,0.1601,0.1633,0.1748,0.1759,0,0,0,0.1438,0.1462,0.1477,0.15,0.1513,0.1526,0.1532,0.1538,0.1571,0.1513,0.1606,0.1614,0.1633,0.1648,0.1657,0.1673,0.1557,0.1557,0.1557,0.1547,0.1538,0.1591,0.1587,0.1609,0.1613,0.163,0.1638,0.1625,0.1646,0.1659,0.1729,0.1747,0.1754,0.177,0.1673,0.1674,0.1674,0.1674,0.1648,0.168,0.1656,0.17,0.169,0.1726,0.173,0.1718,0.175,0.172,0.1736,0.1705,0.1766,0.178,0.1677,0.1676,0.1676,0.1675,0.1675,0.172,0.1733,0.1738,0.1768,0.1792,0.1785,0.1816,0.1805,0.1795,0.1811,0.1823,0.1822,0.1821,0.1817,0.1817,0.1817,0.1817,0.1818,0.1818,0.1793,0.1797,0.1824,0.1839,0.1851,0.1865,0.1866,0.1877,0.1887,0.1877,0.1877,0.1861,0.1773,0.1752,0.1822,0.1821,0.182,0.182,0.182,0.1903,0.1875,0.1918,0.1929,0.1944,0.1968,0.1952,0.1975,0.1982,0.1998,0.1976,0.1912,0.1904,0.1896,0.1879,0.1978,0.1978,0.1978,0.1978,0.1965,0.1957,0.1997,0.2015,0.2032,0.2021,0.2067,0.2067,0.2063,0.2067,0.205,0.2025,0.2018,0.2013,0.2003,0.1987,0.2111,0.2111,0.2111,0.2031,0.2024,0.2068,0.2061,0.2071,0.2079,0.2123,0.2144,0.2134,0.2117,0.2069,0.2064,0.2023,0.2011,0.1996,0.1981,0.1951,0,0]}]]